Погода в Исмаилово

Россия / Республика Башкортостан     55°33′23″N   54°37′56″E
темп.,
°C
ветер,
м/с
пор.,
м/с
влажн.,
%
обл.,
%
осадки,
мм/ч
давл.,
гПа
погр.,
м
26 февраля, пт
пт2623:00−25юв479410 0.0 102791
02:00−26юв47913 0.0 1026129
05:00−24ююв489543 0.0 1026231
08:00−24юв489793 0.0 1025212
11:00−22ююв599379 0.0 1024310
14:00−19ююв599169 0.0 1023351
17:00−18ююв599084 0.0 1021413
20:00−20ююв512937 0.0 1019265
27 февраля, сб
сб2723:00−19ююв6149035 0.0 1017344
02:00−17ююв81589100 0.0 1012488
05:00−16юв91693100 0.2 1008593
08:00−14юв81594100 2.0 1004696
11:00−11ююв81391100 2.6 1003636
14:00−9юв71193100 0.6 1001597
17:00−8юв61093100 1.3 1001532
20:00−8вюв51094100 0.5 1000363
28 февраля, вс
вс2823:00−10вюв5895100 0.6 1001257
02:00−9всв4795100 0.5 1000250
05:00−12св479599 0.8 1001189
08:00−14ссв479698 0.4 1002175
11:00−13ссв479594 0.5 1003275
14:00−11с5793100 0.1 1004369
17:00−11с5793100 0.2 1006418
20:00−13ссз499592 0.1 1008281
1 марта, пн
пн123:00−15ссз479692 0.2 1011190
02:00−18сз469793 0.1 1012125
05:00−19ссз359896 0.1 1014104
08:00−20ссз359895 0.1 1017122
11:00−19с359590 0.1 1018230
14:00−15ссз359179 0.0 1020342
17:00−14ссз359279 0.0 1020330
20:00−19сз339820 0.0 102227
2 марта, вт
вт223:00−20з229828 0.0 102320
02:00−21зюз33952 0.0 102221
05:00−21юз339822 0.0 102133
08:00−22ююз34962 0.0 102059
11:00−17ююз58891 0.0 1018254
14:00−13ююз598622 0.0 1016421
17:00−12ююз6118656 0.0 1014461
20:00−13ююз61194100 0.4 1013491